Torna al catalogo

DELTA 1 DEB

AttivoSSO
NORAD 12246·DEBRIS·🇺🇸 United States

Lanciato Mar 5, 1978 da Vandenberg Space Force Base

Loading…

Prossimi Passaggi (prossime 24 ore)

TLE

AggiornatoSource: Space-Track

Epoca: Sep 14, 2026, 22:21 UTC

1 12246U 78026CP  26257.93186407  .00000618  00000-0  40243-3 0  9999
2 12246  99.0664 145.7035 0055529  81.7109 342.4673 14.05475601330455

Traccia DELTA 1 DEB in tempo reale con AllMySat

Download on the App Store